Location: Bagnolo San Vito
(45.0833°N, 10.8833°E)
Time: 23:10:31
(UTC+00:00)

SeaSat 1 - Pass Details

Date: 03 March 2021
Orbit: 744 x 747 km, 108.0° (Epoch: 17 April)

Event Time Altitude Azimuth Distance (km) Brightness Sun altitude
Rises 17:55:55 0° 32° (NNE) 3,200 5.4 -9.5°
Reaches altitude 10° 17:58:17 10° 39° (NE) 2,272 4.6 -9.9°
Maximum altitude 18:03:03 47° 113° (ESE) 991 2.7 -10.7°
Drops below altitude 10° 18:07:46 10° 186° (S) 2,258 5.0 -11.6°
Sets 18:10:06 0° 193° (SSW) 3,178 5.8 -12.0°
